Miscellaneous Local Product
Issued by NWS Hastings, NE

Home | Current Version | Previous Version | Graphics & Text | Print | Product List | Glossary On
Versions: 1 2 3 4 5 6 7 8 9 10 11 12 13 14 15 16 17 18 19 20 21 22 23 24 25 26 27 28 29 30 31 32 33 34 35 36 37 38 39 40 41 42 43 44 45 46 47 48 49 50
000
AXUS43 KGID 210702
MISGRI

GID CWA HOURLY WEATHER ROUNDUP
NATIONAL WEATHER SERVICE HASTINGS NE
100 AM CST WED FEB 21 2018

NOTE: "FAIR" INDICATES FEW OR NO CLOUDS BELOW 12,000 FEET WITH NO
SIGNIFICANT WEATHER AND/OR OBSTRUCTIONS TO VISIBILITY.

...SOUTH CENTRAL NEBRASKA...

CITY           SKY/WX    TMP DP  RH WIND       PRES   REMARKS
GRAND ISLAND   CLEAR      7   1  76 NW7       30.47R WCI  -5
KEARNEY        CLOUDY     7   1  76 NW7       30.46R WCI  -5
HASTINGS       CLEAR      6   1  80 NW3       30.47R
ORD            CLEAR     -2  -7  79 NW5       30.45R WCI -12
YORK           CLEAR      7   3  85 N6        30.48R WCI  -3
AURORA         CLEAR      5   0  78 NW5       30.48R WCI  -4
LEXINGTON      CLEAR      6  -1  74 NW8       30.43R WCI  -7
HOLDREGE       CLOUDY     7   2  80 NW5       30.43S WCI  -1
HEBRON         CLOUDY    11   5  76 N8        30.49R WCI   0

...NEBRASKA PANHANDLE...

CITY           SKY/WX    TMP DP  RH WIND       PRES   REMARKS
CHADRON        CLEAR    -12 -19  71 W7        30.31R WCI -27
ALLIANCE       CLEAR    -20 -23  86 VRB5      30.26S WCI -33
SCOTTSBLUFF    CLEAR     -6 -11  79 CALM      30.27R
SIDNEY         CLEAR     -3  -7  82 S7        30.26R WCI -16

...WESTERN AND NORTH CENTRAL NEBRASKA...

CITY           SKY/WX    TMP DP  RH WIND       PRES   REMARKS
VALENTINE      CLEAR    -11 -17  75 SW6       30.39R WCI -25
AINSWORTH      CLEAR     -4  -9  79 W7        30.39R WCI -18
ONEILL         CLEAR     -9 -12  85 CALM      30.43R
BROKEN BOW     CLEAR      2  -5  72 VRB3      30.42R
IMPERIAL       CLOUDY     7   0  73 NW6       30.35F WCI  -3
NORTH PLATTE   PTCLDY    -3  -8  79 NW3       30.41S
MCCOOK         PTCLDY     4  -1  80 NW8       30.42R WCI  -9

...EASTERN NEBRASKA...

CITY           SKY/WX    TMP DP  RH WIND       PRES   REMARKS
NORFOLK        CLEAR      4  -1  80 W7        30.47R WCI  -8
SO SIOUX CITY  CLEAR      5   1  83 NW3       30.51R
TEKAMAH        CLEAR      9   3  77 NW8       30.51R WCI  -3
COLUMBUS       CLEAR      6   2  83 NW8       30.50R WCI  -7
ALBION         PTCLDY     2  -3  79 N5        30.47R WCI  -8
OMAHA EPPLEY   CLEAR     11   5  77 N10       30.49R WCI  -3
OFFUTT AFB     CLEAR     12   4  72 N10       30.48R WCI  -2
MILLARD        CLEAR     13   6  72 N6        30.50R WCI   4
LINCOLN        CLEAR     10   4  76 N7        30.52R WCI  -1
NEBRASKA CITY  CLOUDY    12   8  83 N9        30.47R WCI   0
BEATRICE       CLEAR     13   7  78 N14       30.47R WCI  -2
FALLS CITY     PTCLDY    14   8  77 N8        30.46R WCI   3

...NORTHERN KANSAS...

CITY           SKY/WX    TMP DP  RH WIND       PRES   REMARKS
GOODLAND       CLEAR      3  -3  76 W9        30.34R WCI -12
HILL CITY      CLOUDY     9   2  73 NW3       30.45R
NORTON         SUNNY      9   0  66 N3        30.41S
PHILLIPSBURG   CLEAR     10   3  72 NW3       30.48R
SMITH CENTER   PTCLDY     9   1  72 N10       30.47R WCI  -6
BELOIT         CLEAR     12   3  67 N10       30.48S WCI  -1
HAYS           CLOUDY    15   4  61 N12       30.45R WCI   2
RUSSELL        CLOUDY    16   6  65 N13       30.44R WCI   2
CONCORDIA      CLOUDY    12   4  70 N12       30.46R WCI  -2
SALINA         CLOUDY    16   9  74 N12       30.48R WCI   3
TOPEKA         PTCLDY    18  13  80 N13       30.45R WCI   5



USA.gov is the U.S. government's official web portal to all federal, state and local government web resources and services.